Time,TemperatureF,DewpointF,PressureIn,WindDirection,WindDirectionDegrees,WindSpeedMPH,WindSpeedGustMPH,Humidity,HourlyPrecipIn,Conditions,Clouds,dailyrainin,SoftwareType,DateUTC
2013-12-17 00:00:00,49.1,30.3,30.16,South,183,3.6,4.5,48,0.00,,---,0.00,VWS V14.00,2013-12-17 06:00:00,
2013-12-17 00:10:00,48.2,29.5,30.16,South,173,0.0,3.6,48,0.00,,---,0.00,VWS V14.00,2013-12-17 06:10:00,
2013-12-17 00:20:00,47.5,28.8,30.16,South,172,0.0,4.0,48,0.00,,---,0.00,VWS V14.00,2013-12-17 06:20:00,
2013-12-17 00:30:00,46.8,28.6,30.19,South,173,0.0,0.0,49,0.00,,---,0.00,VWS V14.00,2013-12-17 06:30:00,
2013-12-17 00:40:00,46.0,28.5,30.19,South,171,0.0,0.0,50,0.00,,---,0.00,VWS V14.00,2013-12-17 06:40:00,
2013-12-17 00:50:00,45.3,28.3,30.19,South,173,0.0,0.0,51,0.00,,---,0.00,VWS V14.00,2013-12-17 06:50:00,
2013-12-17 01:00:00,44.6,27.6,30.19,South,172,0.0,0.0,51,0.00,,---,0.00,VWS V14.00,2013-12-17 07:00:00,
2013-12-17 01:10:00,43.7,27.2,30.19,South,170,0.0,0.0,52,0.00,,---,0.00,VWS V14.00,2013-12-17 07:10:00,
2013-12-17 01:20:00,43.0,27.0,30.19,South,171,0.0,0.0,53,0.00,,---,0.00,VWS V14.00,2013-12-17 07:20:00,
2013-12-17 01:30:00,42.4,27.0,30.19,South,171,0.0,0.0,54,0.00,,---,0.00,VWS V14.00,2013-12-17 07:30:00,
2013-12-17 01:40:00,42.1,26.6,30.19,South,171,0.0,0.0,54,0.00,,---,0.00,VWS V14.00,2013-12-17 07:40:00,
2013-12-17 01:50:00,41.5,27.0,30.19,South,170,0.0,0.0,56,0.00,,---,0.00,VWS V14.00,2013-12-17 07:50:00,
2013-12-17 02:00:00,41.2,26.7,30.19,South,169,0.0,0.0,56,0.00,,---,0.00,VWS V14.00,2013-12-17 08:00:00,
2013-12-17 02:10:00,40.8,26.8,30.19,South,170,0.0,0.0,57,0.00,,---,0.00,VWS V14.00,2013-12-17 08:10:00,
2013-12-17 02:20:00,40.5,26.9,30.19,South,172,0.0,0.0,58,0.00,,---,0.00,VWS V14.00,2013-12-17 08:20:00,
2013-12-17 02:30:00,40.3,26.7,30.19,South,172,0.0,0.0,58,0.00,,---,0.00,VWS V14.00,2013-12-17 08:30:00,
2013-12-17 02:40:00,39.9,26.8,30.19,South,171,0.0,0.0,59,0.00,,---,0.00,VWS V14.00,2013-12-17 08:40:00,
2013-12-17 02:50:00,39.4,26.7,30.19,South,171,0.0,0.0,60,0.00,,---,0.00,VWS V14.00,2013-12-17 08:50:00,
2013-12-17 03:00:00,39.0,26.7,30.19,South,171,0.0,0.0,61,0.00,,---,0.00,VWS V14.00,2013-12-17 09:00:00,
2013-12-17 03:10:00,38.8,26.6,30.19,South,172,0.0,0.0,61,0.00,,---,0.00,VWS V14.00,2013-12-17 09:10:00,
2013-12-17 03:20:00,38.5,26.6,30.19,South,171,0.0,0.0,62,0.00,,---,0.00,VWS V14.00,2013-12-17 09:20:00,
2013-12-17 03:30:00,38.3,26.8,30.19,South,169,0.0,0.0,63,0.00,,---,0.00,VWS V14.00,2013-12-17 09:30:00,
2013-12-17 03:40:00,38.1,27.0,30.19,South,171,0.0,0.0,64,0.00,,---,0.00,VWS V14.00,2013-12-17 09:40:00,
2013-12-17 03:50:00,38.3,27.6,30.19,South,171,3.1,3.6,65,0.00,,---,0.00,VWS V14.00,2013-12-17 09:50:00,
2013-12-17 04:00:00,38.8,28.1,30.19,South,170,0.0,3.6,65,0.00,,---,0.00,VWS V14.00,2013-12-17 10:00:00,
2013-12-17 04:10:00,39.2,28.8,30.19,South,173,0.0,0.0,66,0.00,,---,0.00,VWS V14.00,2013-12-17 10:10:00,
2013-12-17 04:20:00,39.4,29.0,30.19,South,172,0.0,0.0,66,0.00,,---,0.00,VWS V14.00,2013-12-17 10:20:00,
2013-12-17 04:30:00,39.0,28.6,30.19,South,171,0.0,0.0,66,0.00,,---,0.00,VWS V14.00,2013-12-17 10:30:00,
2013-12-17 04:40:00,38.7,28.3,30.19,South,170,0.0,0.0,66,0.00,,---,0.00,VWS V14.00,2013-12-17 10:40:00,
2013-12-17 04:50:00,38.5,28.5,30.19,South,170,0.0,0.0,67,0.00,,---,0.00,VWS V14.00,2013-12-17 10:50:00,
2013-12-17 05:00:00,38.5,28.5,30.19,South,172,0.0,0.0,67,0.00,,---,0.00,VWS V14.00,2013-12-17 11:00:00,
2013-12-17 05:10:00,38.5,28.9,30.19,South,171,0.0,0.0,68,0.00,,---,0.00,VWS V14.00,2013-12-17 11:10:00,
2013-12-17 05:20:00,38.5,28.9,30.19,South,171,0.0,0.0,68,0.00,,---,0.00,VWS V14.00,2013-12-17 11:20:00,
2013-12-17 05:30:00,38.3,28.7,30.19,South,172,0.0,0.0,68,0.00,,---,0.00,VWS V14.00,2013-12-17 11:30:00,
2013-12-17 05:40:00,38.1,28.9,30.19,South,170,0.0,0.0,69,0.00,,---,0.00,VWS V14.00,2013-12-17 11:40:00,
2013-12-17 05:50:00,37.8,28.5,30.19,South,172,0.0,0.0,69,0.00,,---,0.00,VWS V14.00,2013-12-17 11:50:00,
2013-12-17 06:00:00,37.4,28.2,30.19,South,170,0.0,0.0,69,0.00,,---,0.00,VWS V14.00,2013-12-17 12:00:00,
2013-12-17 06:10:00,37.0,27.8,30.19,South,172,0.0,0.0,69,0.00,,---,0.00,VWS V14.00,2013-12-17 12:10:00,
2013-12-17 06:20:00,36.9,28.0,30.19,South,171,0.0,0.0,70,0.00,,---,0.00,VWS V14.00,2013-12-17 12:20:00,
2013-12-17 06:30:00,36.5,28.0,30.19,South,171,0.0,0.0,71,0.00,,---,0.00,VWS V14.00,2013-12-17 12:30:00,
2013-12-17 06:40:00,36.3,27.8,30.22,South,172,0.0,0.0,71,0.00,,---,0.00,VWS V14.00,2013-12-17 12:40:00,
2013-12-17 06:50:00,36.1,27.7,30.22,South,171,0.0,0.0,71,0.00,,---,0.00,VWS V14.00,2013-12-17 12:50:00,
2013-12-17 07:00:00,35.8,27.6,30.22,South,173,0.0,0.0,72,0.00,,---,0.00,VWS V14.00,2013-12-17 13:00:00,
2013-12-17 07:10:00,35.6,27.5,30.22,South,173,0.0,0.0,72,0.00,,---,0.00,VWS V14.00,2013-12-17 13:10:00,
2013-12-17 07:20:00,35.4,27.3,30.22,South,173,0.0,0.0,72,0.00,,---,0.00,VWS V14.00,2013-12-17 13:20:00,
2013-12-17 07:30:00,35.1,27.3,30.22,South,172,0.0,0.0,73,0.00,,---,0.00,VWS V14.00,2013-12-17 13:30:00,
2013-12-17 07:40:00,34.9,27.1,30.22,South,172,0.0,0.0,73,0.00,,---,0.00,VWS V14.00,2013-12-17 13:40:00,
2013-12-17 07:50:00,34.9,27.5,30.22,SSE,166,0.0,0.0,74,0.00,,---,0.00,VWS V14.00,2013-12-17 13:50:00,
2013-12-17 08:00:00,34.9,27.5,30.22,SSE,168,0.0,0.0,74,0.00,,---,0.00,VWS V14.00,2013-12-17 14:00:00,
2013-12-17 08:10:00,35.2,27.8,30.22,South,170,0.0,0.0,74,0.00,,---,0.00,VWS V14.00,2013-12-17 14:10:00,
2013-12-17 08:20:00,35.8,28.6,30.22,SSE,168,0.0,0.0,75,0.00,,---,0.00,VWS V14.00,2013-12-17 14:20:00,
2013-12-17 08:30:00,37.4,30.5,30.25,SW,236,0.0,4.0,76,0.00,,---,0.00,VWS V14.00,2013-12-17 14:30:00,
2013-12-17 08:40:00,39.4,32.5,30.25,SW,229,0.0,3.6,76,0.00,,---,0.00,VWS V14.00,2013-12-17 14:40:00,
2013-12-17 08:50:00,41.7,34.7,30.25,SW,236,0.0,0.0,76,0.00,,---,0.00,VWS V14.00,2013-12-17 14:50:00,
2013-12-17 09:00:00,43.3,36.0,30.25,SW,231,0.0,0.0,75,0.00,,---,0.00,VWS V14.00,2013-12-17 15:00:00,
2013-12-17 09:10:00,44.8,37.0,30.25,WSW,237,0.0,0.0,74,0.00,,---,0.00,VWS V14.00,2013-12-17 15:10:00,
2013-12-17 09:20:00,46.4,37.9,30.25,SW,231,0.0,4.0,72,0.00,,---,0.00,VWS V14.00,2013-12-17 15:20:00,
2013-12-17 09:30:00,47.7,38.7,30.25,SW,233,0.0,3.6,71,0.00,,---,0.00,VWS V14.00,2013-12-17 15:30:00,
2013-12-17 09:40:00,48.9,39.2,30.28,SW,231,0.0,0.0,69,0.00,,---,0.00,VWS V14.00,2013-12-17 15:40:00,
2013-12-17 09:50:00,49.8,39.3,30.28,WSW,248,0.0,4.0,67,0.00,,---,0.00,VWS V14.00,2013-12-17 15:50:00,
2013-12-17 10:00:00,50.9,40.0,30.28,WSW,248,0.0,3.1,66,0.00,,---,0.00,VWS V14.00,2013-12-17 16:00:00,
2013-12-17 10:10:00,52.2,40.4,30.28,WSW,253,0.0,3.6,64,0.00,,---,0.00,VWS V14.00,2013-12-17 16:10:00,
2013-12-17 10:20:00,53.4,40.7,30.28,WSW,249,0.0,3.6,62,0.00,,---,0.00,VWS V14.00,2013-12-17 16:20:00,
2013-12-17 10:30:00,54.7,40.7,30.28,WSW,250,0.0,4.5,59,0.00,,---,0.00,VWS V14.00,2013-12-17 16:30:00,
2013-12-17 10:40:00,55.6,40.6,30.28,WSW,251,0.0,4.0,57,0.00,,---,0.00,VWS V14.00,2013-12-17 16:40:00,
2013-12-17 10:50:00,56.7,40.7,30.28,WSW,249,4.5,4.5,55,0.00,,---,0.00,VWS V14.00,2013-12-17 16:50:00,
2013-12-17 11:00:00,57.6,40.6,30.28,WSW,250,2.7,4.5,53,0.00,,---,0.00,VWS V14.00,2013-12-17 17:00:00,
2013-12-17 11:10:00,58.6,40.6,30.28,WSW,249,0.0,4.0,51,0.00,,---,0.00,VWS V14.00,2013-12-17 17:10:00,
2013-12-17 11:20:00,59.4,40.7,30.28,WSW,248,0.0,4.0,50,0.00,,---,0.00,VWS V14.00,2013-12-17 17:20:00,
2013-12-17 11:30:00,60.1,40.3,30.28,WSW,248,3.6,4.5,48,0.00,,---,0.00,VWS V14.00,2013-12-17 17:30:00,
2013-12-17 11:40:00,60.8,40.5,30.25,WSW,250,0.0,4.5,47,0.00,,---,0.00,VWS V14.00,2013-12-17 17:40:00,
2013-12-17 11:50:00,61.5,40.6,30.25,NNE,19,2.7,5.4,46,0.00,,---,0.00,VWS V14.00,2013-12-17 17:50:00,
2013-12-17 12:00:00,62.1,39.9,30.25,North,351,0.0,4.5,44,0.00,,---,0.00,VWS V14.00,2013-12-17 18:00:00,
2013-12-17 12:10:00,62.8,40.6,30.25,North,356,4.0,4.9,44,0.00,,---,0.00,VWS V14.00,2013-12-17 18:10:00,
2013-12-17 12:20:00,63.9,40.3,30.25,NNW,332,0.0,6.9,42,0.00,,---,0.00,VWS V14.00,2013-12-17 18:20:00,
2013-12-17 12:30:00,64.6,40.4,30.25,NNW,341,0.0,5.4,41,0.00,,---,0.00,VWS V14.00,2013-12-17 18:30:00,
2013-12-17 12:40:00,64.8,39.2,30.25,NE,42,0.0,5.4,39,0.00,,---,0.00,VWS V14.00,2013-12-17 18:40:00,
2013-12-17 12:50:00,64.9,38.8,30.25,NNW,337,0.0,4.9,38,0.00,,---,0.00,VWS V14.00,2013-12-17 18:50:00,
2013-12-17 13:00:00,65.7,38.7,30.22,NNW,338,0.0,0.0,37,0.00,,---,0.00,VWS V14.00,2013-12-17 19:00:00,
2013-12-17 13:10:00,66.6,39.5,30.22,NNW,339,2.7,3.1,37,0.00,,---,0.00,VWS V14.00,2013-12-17 19:10:00,
2013-12-17 13:20:00,68.5,40.5,30.22,South,185,0.0,4.5,36,0.00,,---,0.00,VWS V14.00,2013-12-17 19:20:00,
2013-12-17 13:30:00,72.0,42.8,30.22,South,181,0.0,0.0,35,0.00,,---,0.00,VWS V14.00,2013-12-17 19:30:00,
2013-12-17 13:40:00,73.8,42.9,30.22,NE,51,4.0,4.9,33,0.00,,---,0.00,VWS V14.00,2013-12-17 19:40:00,
2013-12-17 13:50:00,73.4,41.8,30.22,East,98,3.6,4.9,32,0.00,,---,0.00,VWS V14.00,2013-12-17 19:50:00,
2013-12-17 14:00:00,73.2,41.6,30.22,East,94,3.1,5.4,32,0.00,,---,0.00,VWS V14.00,2013-12-17 20:00:00,
2013-12-17 14:10:00,72.7,41.2,30.22,East,94,0.0,5.4,32,0.00,,---,0.00,VWS V14.00,2013-12-17 20:10:00,
2013-12-17 14:20:00,70.2,39.0,30.22,East,96,0.0,4.0,32,0.00,,---,0.00,VWS V14.00,2013-12-17 20:20:00,
2013-12-17 14:30:00,68.7,37.7,30.22,NNW,334,2.7,5.8,32,0.00,,---,0.00,VWS V14.00,2013-12-17 20:30:00,
2013-12-17 14:40:00,68.7,37.7,30.22,NW,322,3.1,4.9,32,0.00,,---,0.00,VWS V14.00,2013-12-17 20:40:00,
2013-12-17 14:50:00,69.1,38.0,30.22,NNW,333,2.7,4.9,32,0.00,,---,0.00,VWS V14.00,2013-12-17 20:50:00,
2013-12-17 15:00:00,71.4,39.2,30.22,NE,37,4.9,5.8,31,0.00,,---,0.00,VWS V14.00,2013-12-17 21:00:00,
2013-12-17 15:10:00,71.6,39.4,30.22,ENE,65,3.6,6.3,31,0.00,,---,0.00,VWS V14.00,2013-12-17 21:10:00,
2013-12-17 15:20:00,71.4,39.2,30.22,ENE,78,0.0,5.4,31,0.00,,---,0.00,VWS V14.00,2013-12-17 21:20:00,
2013-12-17 15:30:00,73.6,41.1,30.22,NE,49,0.0,5.4,31,0.00,,---,0.00,VWS V14.00,2013-12-17 21:30:00,
2013-12-17 15:40:00,72.1,39.0,30.22,East,97,0.0,5.4,30,0.00,,---,0.00,VWS V14.00,2013-12-17 21:40:00,
2013-12-17 15:50:00,72.3,39.2,30.22,East,101,0.0,4.0,30,0.00,,---,0.00,VWS V14.00,2013-12-17 21:50:00,
2013-12-17 16:00:00,73.2,39.1,30.22,East,82,0.0,5.4,29,0.00,,---,0.00,VWS V14.00,2013-12-17 22:00:00,
2013-12-17 16:10:00,71.6,37.7,30.22,ENE,70,0.0,6.3,29,0.00,,---,0.00,VWS V14.00,2013-12-17 22:10:00,
2013-12-17 16:20:00,69.8,36.1,30.22,ENE,73,2.7,4.5,29,0.00,,---,0.00,VWS V14.00,2013-12-17 22:20:00,
2013-12-17 16:30:00,68.0,34.6,30.22,ENE,72,0.0,3.1,29,0.00,,---,0.00,VWS V14.00,2013-12-17 22:30:00,
2013-12-17 16:40:00,66.7,33.5,30.22,ENE,71,0.0,3.6,29,0.00,,---,0.00,VWS V14.00,2013-12-17 22:40:00,
2013-12-17 16:50:00,65.8,32.7,30.22,ENE,73,0.0,0.0,29,0.00,,---,0.00,VWS V14.00,2013-12-17 22:50:00,
2013-12-17 17:00:00,64.4,32.3,30.22,ENE,73,0.0,0.0,30,0.00,,---,0.00,VWS V14.00,2013-12-17 23:00:00,
2013-12-17 17:10:00,62.8,31.7,30.22,ENE,73,0.0,0.0,31,0.00,,---,0.00,VWS V14.00,2013-12-17 23:10:00,
2013-12-17 17:20:00,61.2,31.1,30.22,ENE,75,0.0,0.0,32,0.00,,---,0.00,VWS V14.00,2013-12-17 23:20:00,
2013-12-17 17:30:00,59.5,30.4,30.22,ENE,70,0.0,0.0,33,0.00,,---,0.00,VWS V14.00,2013-12-17 23:30:00,
2013-12-17 17:40:00,58.1,29.9,30.22,ENE,74,0.0,0.0,34,0.00,,---,0.00,VWS V14.00,2013-12-17 23:40:00,
2013-12-17 17:50:00,56.7,29.3,30.22,ENE,74,0.0,0.0,35,0.00,,---,0.00,VWS V14.00,2013-12-17 23:50:00,
2013-12-17 18:00:00,55.8,29.2,30.22,ENE,74,0.0,0.0,36,0.00,,---,0.00,VWS V14.00,2013-12-18 00:00:00,
2013-12-17 18:10:00,54.7,28.3,30.22,ENE,74,0.0,0.0,36,0.00,,---,0.00,VWS V14.00,2013-12-18 00:10:00,
2013-12-17 18:20:00,54.0,29.0,30.22,ENE,75,0.0,0.0,38,0.00,,---,0.00,VWS V14.00,2013-12-18 00:20:00,
2013-12-17 18:30:00,53.1,28.8,30.22,ENE,74,0.0,0.0,39,0.00,,---,0.00,VWS V14.00,2013-12-18 00:30:00,
2013-12-17 18:40:00,52.3,28.8,30.25,ENE,73,0.0,0.0,40,0.00,,---,0.00,VWS V14.00,2013-12-18 00:40:00,
2013-12-17 18:50:00,51.6,28.7,30.25,ENE,73,0.0,0.0,41,0.00,,---,0.00,VWS V14.00,2013-12-18 00:50:00,
2013-12-17 19:00:00,51.1,29.4,30.25,ENE,73,0.0,0.0,43,0.00,,---,0.00,VWS V14.00,2013-12-18 01:00:00,
2013-12-17 19:10:00,50.7,30.2,30.25,ENE,74,0.0,0.0,45,0.00,,---,0.00,VWS V14.00,2013-12-18 01:10:00,
2013-12-17 19:20:00,50.2,30.2,30.25,ENE,73,0.0,0.0,46,0.00,,---,0.00,VWS V14.00,2013-12-18 01:20:00,
2013-12-17 19:30:00,49.6,30.2,30.25,ENE,73,0.0,0.0,47,0.00,,---,0.00,VWS V14.00,2013-12-18 01:30:00,
2013-12-17 19:40:00,49.5,30.1,30.25,ENE,73,0.0,0.0,47,0.00,,---,0.00,VWS V14.00,2013-12-18 01:40:00,
2013-12-17 19:50:00,49.3,30.4,30.25,ENE,73,0.0,0.0,48,0.00,,---,0.00,VWS V14.00,2013-12-18 01:50:00,
2013-12-17 20:00:00,48.9,30.6,30.25,ENE,73,0.0,0.0,49,0.00,,---,0.00,VWS V14.00,2013-12-18 02:00:00,
2013-12-17 20:10:00,48.4,30.1,30.25,ENE,76,0.0,0.0,49,0.00,,---,0.00,VWS V14.00,2013-12-18 02:10:00,
2013-12-17 20:20:00,47.8,30.1,30.25,ENE,76,0.0,0.0,50,0.00,,---,0.00,VWS V14.00,2013-12-18 02:20:00,
2013-12-17 20:30:00,47.5,30.3,30.25,ENE,73,0.0,0.0,51,0.00,,---,0.00,VWS V14.00,2013-12-18 02:30:00,
2013-12-17 20:40:00,47.5,30.3,30.25,ENE,74,0.0,0.0,51,0.00,,---,0.00,VWS V14.00,2013-12-18 02:40:00,
2013-12-17 20:50:00,47.3,30.6,30.25,ENE,76,0.0,0.0,52,0.00,,---,0.00,VWS V14.00,2013-12-18 02:50:00,
2013-12-17 21:00:00,47.1,30.9,30.25,ENE,74,0.0,0.0,53,0.00,,---,0.00,VWS V14.00,2013-12-18 03:00:00,
2013-12-17 21:10:00,46.8,31.0,30.25,ENE,74,0.0,0.0,54,0.00,,---,0.00,VWS V14.00,2013-12-18 03:10:00,
2013-12-17 21:20:00,46.2,31.0,30.25,ENE,74,0.0,0.0,55,0.00,,---,0.00,VWS V14.00,2013-12-18 03:20:00,
2013-12-17 21:30:00,45.9,30.6,30.25,ENE,75,0.0,0.0,55,0.00,,---,0.00,VWS V14.00,2013-12-18 03:30:00,
2013-12-17 21:40:00,45.5,30.7,30.25,ENE,75,0.0,0.0,56,0.00,,---,0.00,VWS V14.00,2013-12-18 03:40:00,
2013-12-17 21:50:00,45.1,30.8,30.25,ENE,73,0.0,0.0,57,0.00,,---,0.00,VWS V14.00,2013-12-18 03:50:00,
2013-12-17 22:00:00,44.8,30.9,30.25,ENE,74,0.0,0.0,58,0.00,,---,0.00,VWS V14.00,2013-12-18 04:00:00,
2013-12-17 22:10:00,44.4,30.6,30.25,ENE,72,0.0,0.0,58,0.00,,---,0.00,VWS V14.00,2013-12-18 04:10:00,
2013-12-17 22:20:00,44.1,30.7,30.25,ENE,75,0.0,0.0,59,0.00,,---,0.00,VWS V14.00,2013-12-18 04:20:00,
2013-12-17 22:30:00,43.7,30.7,30.25,ENE,73,0.0,0.0,60,0.00,,---,0.00,VWS V14.00,2013-12-18 04:30:00,
2013-12-17 22:40:00,43.3,30.8,30.25,ENE,74,0.0,0.0,61,0.00,,---,0.00,VWS V14.00,2013-12-18 04:40:00,
2013-12-17 22:50:00,43.2,31.0,30.25,ENE,74,0.0,0.0,62,0.00,,---,0.00,VWS V14.00,2013-12-18 04:50:00,
2013-12-17 23:00:00,43.0,30.9,30.25,ENE,73,0.0,0.0,62,0.00,,---,0.00,VWS V14.00,2013-12-18 05:00:00,
2013-12-17 23:10:00,42.8,31.1,30.25,ENE,74,0.0,0.0,63,0.00,,---,0.00,VWS V14.00,2013-12-18 05:10:00,
2013-12-17 23:20:00,42.6,31.3,30.25,ENE,75,0.0,0.0,64,0.00,,---,0.00,VWS V14.00,2013-12-18 05:20:00,
2013-12-17 23:30:00,42.6,31.3,30.25,ENE,75,0.0,0.0,64,0.00,,---,0.00,VWS V14.00,2013-12-18 05:30:00,
2013-12-17 23:40:00,42.4,31.5,30.25,ENE,75,0.0,0.0,65,0.00,,---,0.00,VWS V14.00,2013-12-18 05:40:00,
2013-12-17 23:50:00,42.1,31.2,30.25,ENE,74,0.0,0.0,65,0.00,,---,0.00,VWS V14.00,2013-12-18 05:50:00,